CZ-4C R/B (49123 NORAD) Tracking and Keplerian Element Data

This shows tracking and keplerian element data for the satellite.

Feedback or suggestion? Click here.




ElementValue
Catalog49123
NameCZ-4C R/B
Epoch Orbit179
Epoch Day262.1666426
Epoch Year2021
RAAN334.1984
Inclination98.3197
Eccentricity0.0138449
Argument of Perigee23.1782
Mean Anonmoly337.5601
Mean Motion14.9310694
Decay Rate7.16E-06
L11 49123U 21079B 21262.16664260 .00000716 00000-0 63103-4 0 9993
L22 49123 98.3197 334.1984 0138449 23.1782 337.5601 14.93106940 1791

Live tracking and technical data element details for CZ-4C R/B (NORAD 49123). CZ-4C R/B can be tracked NOW for your location showing map with azimuth and elevation plus other details from your city location.

Track the satellite on the map from your city or location and see movement details for azimuth, elevation, latitude, longitude, range, height, and movement on the map or in text.







IsCatalogInMostPopularTable: catalog: 49123, numindb: 3
Update: records affected: 1



GetName: 49123 CZ-4C R/B

Hit Count: updated at: Fri, 24 Sep 2021 19:12:12 GMT